Location: Espelette
(43.3402°N, 1.4474°W)
Time: 19:40:39
(UTC+00:00)

Gbstr 26 Del rocket - Pass Details

Date: 19 May 2025
Orbit: 490 x 1223 km, 51.8° (Epoch: 23 June)

Event Time Altitude Azimuth Distance (km) Brightness Sun altitude
Rises 20:10:32 0° 300° (WNW) 3,579 9.4 -7.4°
Reaches altitude 10° 20:13:28 10° 294° (WNW) 2,503 7.7 -7.8°
Maximum altitude 20:18:51 41° 226° (SW) 1,070 4.4 -8.6°
Drops below altitude 10° 20:23:16 10° 157° (SSE) 2,046 5.2 -9.2°
Enters shadow 20:23:29 - 156° (SSE) 2,123 5.3 -9.2°
